This is the latest recevied weather packets stored in our database for station/object K1JO. If no packets are shown the sender has not sent any weather packets the latest 10 day(s).
| Time | Temp. | Humidity | Pressure | Rain* | Wind** | Luminosity | Snow |
|---|---|---|---|---|---|---|---|
| 1777580534 | 8.33° C | 99% | 1003.6 hPa | 6.1 mm | - | 14 W/m² | - |
| 1777580229 | 8.33° C | 99% | 1003.7 hPa | 8.89 mm | - | 14 W/m² | - |
| 1777579927 | 8.33° C | 99% | 1003.7 hPa | 10.67 mm | - | 17 W/m² | - |
| 1777579622 | 8.89° C | 99% | 1003.6 hPa | 9.65 mm | - | 18 W/m² | - |
| 1777579316 | 8.89° C | 99% | 1003.5 hPa | 7.87 mm | - | 16 W/m² | - |
| 1777579012 | 8.89° C | 99% | 1003.7 hPa | 4.32 mm | - | 17 W/m² | - |
| 1777578707 | 8.89° C | 99% | 1003.9 hPa | 3.05 mm | - | 20 W/m² | - |
| 1777578406 | 8.89° C | 99% | 1003.6 hPa | 1.78 mm | - | 26 W/m² | - |
| 1777578102 | 8.89° C | 99% | 1003.7 hPa | 0 mm | - | 33 W/m² | - |
| 1777577799 | 8.89° C | 99% | 1003.5 hPa | 1.27 mm | - | 33 W/m² | - |
| 1777577494 | 8.89° C | 99% | 1003.6 hPa | 1.27 mm | - | 48 W/m² | - |
| 1777577191 | 8.89° C | 99% | 1003.9 hPa | 1.78 mm | - | 51 W/m² | - |
| 1777576887 | 8.89° C | 99% | 1003.9 hPa | 1.78 mm | - | 49 W/m² | - |
| 1777576581 | 8.89° C | 99% | 1003.9 hPa | 0 mm | - | 53 W/m² | - |
| 1777576277 | 8.89° C | 99% | 1003.9 hPa | 0 mm | - | 75 W/m² | - |
| 1777575974 | 8.89° C | 99% | 1004.2 hPa | 0 mm | - | 54 W/m² | - |
| 1777575669 | 8.89° C | 99% | 1004.4 hPa | 0 mm | - | 67 W/m² | - |
| 1777575364 | 8.89° C | 99% | 1004.4 hPa | 1.27 mm | - | 81 W/m² | - |
| 1777575062 | 8.89° C | 99% | 1004.6 hPa | 1.27 mm | - | 33 W/m² | - |
| 1777574757 | 8.89° C | 99% | 1004.4 hPa | 0 mm | - | 37 W/m² | - |
| 1777574455 | 8.89° C | 98% | 1004.4 hPa | 0 mm | - | 65 W/m² | - |
| 1777574149 | 8.89° C | 98% | 1004.5 hPa | 0 mm | - | 110 W/m² | - |
| 1777573845 | 8.89° C | 98% | 1004.6 hPa | 0 mm | - | 82 W/m² | - |
| 1777573540 | 8.89° C | 98% | 1005 hPa | 0 mm | - | 65 W/m² | - |
| 1777573237 | 8.33° C | 98% | 1004.8 hPa | 0 mm | - | 107 W/m² | - |
* Rain latest hour (hover to see other rain measurements)
** Current wind speed in m/s (hover to see current wind gust speed)